Home > Weather > Christiansted > Past weeks

Flag for US Virgin Islands Weather for the Past 2 Weeks in Christiansted, US Virgin Islands

Now
79 °F

Partly cloudy.


Feels Like: 82 °F
Forecast: 73 / 84 °F
Wind: 9 mph from East

Location: Christiansted / Henry E. Rohlsen Airport - Saint Croix

Current Time: Feb 8, 2016 at 7:07:58 AM

Latest Report: Feb 8, 2016 at 6:31 AM


Visibility: 10 mi

Pressure: 30.04 "Hg

Humidity: 77%

Dew point: 71 °F

Location of ChristianstedLocation

Historic Weather in Christiansted — Graph

°F

Christiansted Temperature Yesterday

Maximum temperature yesterday: 86 °F (at 10:53 AM)
Minimum temperature yesterday: 74 °F (at 10:53 PM)
Average temperature yesterday: 81 °F

High & Low Weather Summary for the Past Weeks

 TemperatureHumidityPressure
High87 °F (Jan 26, 11:53 AM)91% (Jan 25, 6:53 AM)30.16 "Hg (Jan 25, 6:53 AM)
Low68 °F (Feb 3, 4:53 AM)48% (Jan 31, 3:11 PM)29.89 "Hg (Feb 4, 3:53 PM)
Average79 °F72%30.03 "Hg
* Reported Jan 24 5:53 AM — Feb 8 5:53 AM, Christiansted, Weather by CustomWeather, © 2016

Note: Actual official high and low records may vary slightly from our data, if they occured in-between our weather recording intervals... More about our weather records

Advertising

Christiansted Weather History for the Previous 24 Hours

 ConditionsComfort  
Time TempWeatherWind HumidityBarometerVisibility
5:53 AM
Mon, Feb 8
79 °FPartly cloudy.12 mph77%30.02 "Hg10 mi
4:53 AM78 °FPassing clouds.13 mph79%30.01 "Hg10 mi
3:53 AM78 °FPartly cloudy.10 mph79%30.01 "Hg10 mi
3:33 AM79 °FOvercast.9 mph77%30.01 "Hg10 mi
2:53 AM78 °FPassing clouds.7 mph79%30.01 "Hg10 mi
2:42 AM78 °FPassing clouds.10 mph79%30.02 "Hg10 mi
1:53 AM79 °FPartly cloudy.8 mph79%30.02 "Hg10 mi
12:53 AM79 °FOvercast.7 mph79%30.04 "Hg10 mi
11:53 PM
Sun, Feb 7
74 °FPassing clouds.3 mph88%30.06 "Hg10 mi
10:53 PM74 °FPassing clouds.3 mph88%30.07 "Hg10 mi
9:53 PM75 °FPassing clouds.3 mph85%30.07 "Hg10 mi
8:53 PM78 °FClear.5 mph79%30.06 "Hg10 mi
7:53 PM79 °FPassing clouds.7 mph77%30.04 "Hg10 mi
6:53 PM79 °FPartly cloudy.5 mph77%30.02 "Hg10 mi
5:53 PM81 °FSunny.7 mph72%30.01 "Hg10 mi
4:53 PM83 °FSunny.9 mph65%30.00 "Hg10 mi
3:53 PM84 °FPassing clouds.12 mph63%29.99 "Hg10 mi
2:53 PM86 °FSunny.16 mph57%29.99 "Hg10 mi
1:53 PM86 °FPassing clouds.16 mph61%30.02 "Hg10 mi
12:53 PM85 °FScattered clouds.15 mph63%30.05 "Hg10 mi
11:53 AM86 °FPassing clouds.14 mph61%30.06 "Hg10 mi
10:53 AM86 °FScattered clouds.14 mph59%30.08 "Hg10 mi
9:53 AM85 °FScattered clouds.16 mph61%30.08 "Hg10 mi
8:53 AM82 °FScattered clouds.16 mph70%30.06 "Hg10 mi
7:53 AM80 °FScattered clouds.13 mph74%30.05 "Hg10 mi
Weather by CustomWeather, © 2016

See weather overviewHow to use our weather pages